[[{"header":{"parameterUnit":"m.s-1","parameterCategory":1,"la1":30.2992,"la2":30.254,"lo1":-89.0895,"lo2":-89.0443,"dy":0.0025,"dx":0.0025,"nx":19,"ny":19,"refTime":"2026-04-13T09:00:00:Z","depth":0,"parameterNumber":2,"parameterNumberName":"U-component_of_WINDS"},"data":[0,0,0,-3.0012,-3.0015,-3.0145,-3.0146,-3.0308,-3.031,0,0,0,0,0,0,0,0,0,0,0,-2.9971,-2.9972,-3.0012,-3.0015,-3.0145,-3.0146,-3.0308,-3.031,0,0,0,0,0,0,0,0,0,0,0,-2.997,-2.9971,-2.9973,-3.0015,-3.0145,-3.0146,-3.0308,-3.0211,0,0,0,0,0,0,0,0,0,0,-3.0085,-3.0044,-2.9971,-2.9973,-3.0016,-3.0145,-3.0146,-3.0206,-3.0217,-3.0247,0,-3.0274,0,-3.0294,-3.032,-3.0321,0,0,0,-3.0017,-3.0035,-3.0073,-2.9973,-3.0017,-3.0145,-3.0087,-3.0212,-3.0224,-3.0261,-3.0276,-3.0282,-3.0297,-3.0321,-3.0322,-3.0492,-3.0492,0,0,-3.0009,-2.9993,-3.0065,-3.008,-3.006,-3.0083,-3.0091,-3.022,-3.0235,-3.0277,-3.0286,-3.03,-3.0323,-3.0324,-3.0491,-3.0492,0,0,0,-2.9987,-2.9988,-3.0022,-3.0074,-3.0098,-3.0086,-3.0096,-3.0229,-3.0242,-3.0288,-3.0302,-3.0323,-3.0325,-3.049,-3.0491,-3.0509,0,0,0,-2.9983,-2.9975,-3.0019,-3.001,-3.0095,-3.0165,-3.0102,-3.0233,-3.0248,-3.0301,-3.0323,-3.0327,-3.049,-3.0491,-3.0507,-3.052,0,0,0,-2.9963,-2.9972,-2.999,-3.0009,-3.0064,-3.0163,-3.0183,-3.0236,-3.0256,-3.0321,-3.0327,-3.0489,-3.0491,-3.0505,-3.0517,-3.0559,0,0,0,-2.9936,-3.0005,-2.999,-3.0072,-3.0063,-3.0173,-3.0183,-3.0266,-3.0324,-3.0324,-3.049,-3.0491,-3.0505,-3.0515,-3.0557,-3.0591,-3.0604,0,0,-3.0013,-3.0014,-3.0063,-3.0054,-3.0162,-3.0155,-3.0266,-3.0336,-3.0357,-3.0446,-3.045,-3.0508,-3.0517,-3.0559,-3.0683,-3.0692,0,0,0,-3.0082,-3.0117,-3.0149,-3.0204,-3.0258,-3.0306,-3.036,-3.0385,-3.0461,-3.0399,-3.0535,-3.0541,-3.0567,-3.0583,-3.0592,-3.0614,-3.0499,-3.0498,-3.0498,-3.0166,-3.019,-3.0273,-3.0313,-3.0365,-3.042,-3.0465,-3.0509,-3.0518,-3.055,-3.0576,-3.0648,-3.0667,-3.0674,-3.0697,-3.0596,-3.0596,-3.0597,-3.0597,-3.028,-3.0333,-3.0344,-3.0428,-3.0453,-3.0524,-3.0579,-3.0583,-3.0653,-3.063,-3.0654,-3.0626,-3.0684,-3.0705,-3.0598,-3.0598,-3.0598,-3.0598,-3.0597,-3.0337,-3.0367,-3.0397,-3.0478,-3.0537,-3.0575,-3.0642,-3.0662,-3.0682,-3.0705,-3.0735,-3.0734,-3.0736,-3.0718,-3.0718,-3.0719,-3.0719,-3.0719,-3.0719,-3.0384,-3.0418,-3.0471,-3.0534,-3.0571,-3.0623,-3.0679,-3.0717,-3.0763,-3.0773,-3.0773,-3.0779,-3.0685,-3.0661,-3.0723,-3.0722,-3.0722,-3.0721,-3.0721,-3.049,-3.0469,-3.0551,-3.0589,-3.0664,-3.0722,-3.0747,-3.0822,-3.0856,-3.0888,-3.0888,-3.0816,-3.0818,-3.0811,-3.0791,-3.0883,-3.0883,-3.0883,-3.0883,-3.0538,-3.054,-3.0628,-3.0687,-3.0746,-3.0778,-3.0869,-3.0913,-3.0955,-3.0978,-3.0968,-3.0943,-3.0935,-3.0941,-3.0932,-3.0913,-3.1035,-3.1035,-3.1035,-3.0603,-3.0613,-3.0687,-3.0727,-3.0788,-3.084,-3.0926,-3.0993,-3.1036,-3.1042,-3.0996,-3.0989,-3.095,-3.0936,-3.0939,-3.0924,-3.089,0,0]},{"header":{"parameterUnit":"m.s-1","parameterCategory":1,"la1":30.2992,"la2":30.254,"lo1":-89.0895,"lo2":-89.0443,"dy":0.0025,"dx":0.0025,"nx":19,"ny":19,"refTime":"2026-04-13T09:00:00:Z","depth":0,"parameterNumber":3,"parameterNumberName":"V-component_of_WINDS"},"data":[0,0,0,5.5148,5.5152,5.5341,5.5341,5.5581,5.5583,0,0,0,0,0,0,0,0,0,0,0,5.5095,5.5097,5.5148,5.5152,5.5341,5.5342,5.558,5.5583,0,0,0,0,0,0,0,0,0,0,0,5.5094,5.5097,5.5099,5.5153,5.5341,5.5342,5.558,5.5437,0,0,0,0,0,0,0,0,0,0,5.5254,5.521,5.5096,5.5099,5.5154,5.534,5.5342,5.543,5.5446,5.5496,0,5.5545,0,5.5568,5.5599,5.56,0,0,0,5.5149,5.5197,5.5245,5.5099,5.5156,5.534,5.5255,5.5439,5.5457,5.5517,5.5548,5.5557,5.5572,5.5601,5.5602,5.5909,5.591,0,0,5.5139,5.513,5.5233,5.5257,5.5232,5.5249,5.5261,5.545,5.5482,5.5549,5.5562,5.5576,5.5602,5.5604,5.5908,5.5909,0,0,0,5.5111,5.5123,5.5167,5.5247,5.5281,5.5254,5.5268,5.5473,5.5489,5.5565,5.5579,5.5604,5.5607,5.5906,5.5908,5.598,0,0,0,5.5105,5.5107,5.5162,5.5159,5.5278,5.5381,5.5287,5.5475,5.5497,5.5577,5.5604,5.5609,5.5904,5.5907,5.5974,5.6014,0,0,0,5.5082,5.5104,5.5133,5.5158,5.5239,5.5378,5.5404,5.548,5.5506,5.56,5.561,5.5903,5.5907,5.5969,5.6006,5.6092,0,0,0,5.5054,5.5193,5.5134,5.5294,5.5238,5.5422,5.5403,5.554,5.5629,5.5605,5.5904,5.5908,5.5967,5.6001,5.6086,5.6162,5.6194,0,0,5.5224,5.5213,5.5307,5.526,5.5454,5.5394,5.5596,5.5685,5.5699,5.5837,5.5845,5.5976,5.6005,5.6091,5.6374,5.6399,0,0,0,5.5358,5.5426,5.5479,5.5566,5.5639,5.5703,5.5762,5.5794,5.5912,5.577,5.6031,5.6049,5.6099,5.6135,5.6157,5.6199,5.5925,5.5925,5.5924,5.5585,5.5599,5.5756,5.5793,5.5876,5.5936,5.6004,5.6057,5.6045,5.6106,5.6147,5.6317,5.636,5.6376,5.642,5.6189,5.6189,5.6189,5.6189,5.5834,5.5932,5.5914,5.606,5.6072,5.6193,5.6254,5.6241,5.6353,5.6288,5.6333,5.6259,5.6403,5.6442,5.6195,5.6194,5.6193,5.6193,5.6192,5.5984,5.6033,5.6072,5.6198,5.6293,5.6323,5.6432,5.6439,5.6445,5.649,5.6532,5.6531,5.653,5.651,5.6511,5.6511,5.6512,5.6512,5.6513,5.6123,5.6165,5.6258,5.6347,5.6403,5.6477,5.6537,5.659,5.6651,5.6647,5.6647,5.6627,5.6415,5.6361,5.6522,5.652,5.6519,5.6518,5.6517,5.6369,5.6315,5.6458,5.6515,5.6618,5.671,5.6718,5.6826,5.6871,5.6924,5.6895,5.6738,5.6725,5.6708,5.6663,5.6893,5.6893,5.6893,5.6893,5.6495,5.649,5.6638,5.6727,5.6814,5.6836,5.6993,5.7039,5.7078,5.7106,5.7074,5.7015,5.6998,5.6996,5.6973,5.6931,5.7223,5.7224,5.7224,5.6646,5.665,5.6785,5.6826,5.6907,5.6975,5.7122,5.7221,5.7254,5.7237,5.7128,5.7114,5.7019,5.6988,5.6968,5.6932,5.6856,0,0]}]]